Estación de Calama Rural INIA
Ultimos registro cada 15 minutos 79
| N° | Estación | Fecha / Hora | Temperatura | Humedad | Lluvia | Velocidad | Dirección | Radiación | Presion |
| 79 | Calama Rural INIA | 02-09-2026 19:30 | 15,5 | 22,4 | 0 | 1 | 249 | 8,4 | 782,4 |
| 78 | Calama Rural INIA | 02-09-2026 19:15 | 16,4 | 22,2 | 0 | 1,4 | 244 | 8,1 | 782,2 |
| 77 | Calama Rural INIA | 02-09-2026 19:00 | 17,3 | 20,3 | 0 | 2 | 245 | 8,1 | 781,9 |
| 76 | Calama Rural INIA | 02-09-2026 18:45 | 18,2 | 17 | 0 | 2,7 | 239 | 8,5 | 781,7 |
| 75 | Calama Rural INIA | 02-09-2026 18:30 | 19 | 14,4 | 0 | 3,6 | 238 | 12,5 | 781,5 |
| 74 | Calama Rural INIA | 02-09-2026 18:15 | 19,9 | 14,1 | 0 | 4 | 237 | 18 | 781,4 |
| 73 | Calama Rural INIA | 02-09-2026 18:00 | 20,5 | 12,4 | 0 | 2 | 246 | 21,3 | 781,4 |
| 72 | Calama Rural INIA | 02-09-2026 17:45 | 20,9 | 7,1 | 0 | 1,9 | 243 | 25 | 781,1 |
| 71 | Calama Rural INIA | 02-09-2026 17:30 | 21,8 | 8,2 | 0 | 1,8 | 247 | 39,7 | 781,1 |
| 70 | Calama Rural INIA | 02-09-2026 17:15 | 23 | 6,2 | 0 | 1,7 | 246 | 128,2 | 780,9 |
| 69 | Calama Rural INIA | 02-09-2026 17:00 | 23,9 | 6,4 | 0 | 2,2 | 241 | 200,5 | 780,9 |
| 68 | Calama Rural INIA | 02-09-2026 16:45 | 23,9 | 6,6 | 0 | 2 | 242 | 304 | 780,8 |
| 67 | Calama Rural INIA | 02-09-2026 16:30 | 24 | 6,4 | 0 | 3,2 | 244 | 349,9 | 780,8 |
| 66 | Calama Rural INIA | 02-09-2026 16:15 | 24,3 | 6,7 | 0 | 3,2 | 239 | 394,1 | 780,7 |
| 65 | Calama Rural INIA | 02-09-2026 16:00 | 24,6 | 8,2 | 0 | 2,8 | 239 | 438,2 | 780,6 |
| 64 | Calama Rural INIA | 02-09-2026 15:45 | 24,6 | 8,4 | 0 | 2,8 | 243 | 477,3 | 780,8 |
| 63 | Calama Rural INIA | 02-09-2026 15:30 | 24,4 | 7 | 0 | 3,6 | 238 | 516 | 780,9 |
| 62 | Calama Rural INIA | 02-09-2026 15:15 | 24,4 | 7,4 | 0 | 3,7 | 238 | 552,4 | 781 |
| 61 | Calama Rural INIA | 02-09-2026 15:00 | 24,5 | 7,2 | 0 | 3,7 | 237 | 585,3 | 780,9 |
| 60 | Calama Rural INIA | 02-09-2026 14:45 | 24,7 | 9,5 | 0 | 3,5 | 238 | 615,9 | 781 |
| 59 | Calama Rural INIA | 02-09-2026 14:30 | 25 | 6,7 | 0 | 3,3 | 238 | 644,4 | 781,2 |
| 58 | Calama Rural INIA | 02-09-2026 14:15 | 25 | 7,4 | 0 | 2,7 | 246 | 668,8 | 781,3 |
| 57 | Calama Rural INIA | 02-09-2026 14:00 | 24,8 | 7,5 | 0 | 3,4 | 241 | 690,6 | 781,4 |
| 56 | Calama Rural INIA | 02-09-2026 13:45 | 24,8 | 7,8 | 0 | 3 | 239 | 706,5 | 781,4 |
| 55 | Calama Rural INIA | 02-09-2026 13:30 | 24,9 | 8 | 0 | 3 | 243 | 720,5 | 781,4 |
| 54 | Calama Rural INIA | 02-09-2026 13:15 | 24,4 | 8,2 | 0 | 3,6 | 244 | 731,1 | 781,4 |
| 53 | Calama Rural INIA | 02-09-2026 13:00 | 25,8 | 8,1 | 0 | 2,4 | 252 | 738,5 | 781,6 |
| 52 | Calama Rural INIA | 02-09-2026 12:45 | 26,2 | 8,1 | 0 | 1,7 | 242 | 742 | 781,8 |
| 51 | Calama Rural INIA | 02-09-2026 12:30 | 26,2 | 9,4 | 0 | 1,6 | 252 | 742,2 | 781,9 |
| 50 | Calama Rural INIA | 02-09-2026 12:15 | 27,5 | 6,8 | 0 | 0,4 | 236 | 737,8 | 781,9 |
| 49 | Calama Rural INIA | 02-09-2026 12:00 | 27,6 | 9,6 | 0 | 0,2 | 236 | 729,9 | 782,1 |
| 48 | Calama Rural INIA | 02-09-2026 11:45 | 27,3 | 5,6 | 0 | 0 | 259 | 720,5 | 782,1 |
| 47 | Calama Rural INIA | 02-09-2026 11:30 | 26,7 | 8,3 | 0 | 0 | 215 | 703,8 | 782,2 |
| 46 | Calama Rural INIA | 02-09-2026 11:15 | 25 | 5 | 0 | 0 | 0 | 691,7 | 782,4 |
| 45 | Calama Rural INIA | 02-09-2026 11:00 | 23,4 | 8,2 | 0 | 0,2 | 89 | 668,9 | 782,5 |
| 44 | Calama Rural INIA | 02-09-2026 10:45 | 23,2 | 7,4 | 0 | 0,2 | 68 | 601,6 | 782,6 |
| 43 | Calama Rural INIA | 02-09-2026 10:30 | 21,6 | 10,2 | 0 | 0,7 | 64 | 614,6 | 782,7 |
| 42 | Calama Rural INIA | 02-09-2026 10:15 | 20,6 | 9,5 | 0 | 1,8 | 68 | 583,9 | 782,6 |
| 41 | Calama Rural INIA | 02-09-2026 10:00 | 19,4 | 9,8 | 0 | 2,6 | 69 | 549,4 | 782,4 |
| 40 | Calama Rural INIA | 02-09-2026 09:45 | 18,2 | 9,1 | 0 | 3 | 64 | 511,8 | 782,5 |
| 39 | Calama Rural INIA | 02-09-2026 09:30 | 17,1 | 9,4 | 0 | 3,3 | 63 | 473 | 782,4 |
| 38 | Calama Rural INIA | 02-09-2026 09:15 | 15,7 | 9,6 | 0 | 3,7 | 69 | 431,3 | 782,5 |
| 37 | Calama Rural INIA | 02-09-2026 09:00 | 13,9 | 10,2 | 0 | 4 | 66 | 387,7 | 782,6 |
| 36 | Calama Rural INIA | 02-09-2026 08:45 | 12,5 | 10 | 0 | 3,8 | 70 | 341,8 | 782,6 |
| 35 | Calama Rural INIA | 02-09-2026 08:30 | 11,2 | 12 | 0 | 3,6 | 74 | 295,3 | 782,6 |
| 34 | Calama Rural INIA | 02-09-2026 08:15 | 9,8 | 11,7 | 0 | 4,1 | 74 | 249,7 | 782,4 |
| 33 | Calama Rural INIA | 02-09-2026 08:00 | 8,6 | 13 | 0 | 4,4 | 76 | 201,8 | 782,6 |
| 32 | Calama Rural INIA | 02-09-2026 07:45 | 8,6 | 12,3 | 0 | 2,9 | 77 | 156,6 | 782,5 |
| 31 | Calama Rural INIA | 02-09-2026 07:30 | 7,6 | 13,9 | 0 | 3,3 | 76 | 110 | 782,3 |
| 30 | Calama Rural INIA | 02-09-2026 07:15 | 6,2 | 14,5 | 0 | 3,1 | 66 | 56 | 782,3 |
| 29 | Calama Rural INIA | 02-09-2026 07:00 | 5,5 | 14,7 | 0 | 2,9 | 67 | 16,4 | 782,3 |
| 28 | Calama Rural INIA | 02-09-2026 06:45 | 5,7 | 14,6 | 0 | 3,2 | 60 | 9,5 | 782,2 |
| 27 | Calama Rural INIA | 02-09-2026 06:30 | 5,2 | 15,4 | 0 | 3,4 | 72 | 8,1 | 782 |
| 26 | Calama Rural INIA | 02-09-2026 06:15 | 4,5 | 17,2 | 0 | 3,5 | 73 | 7,9 | 782 |
| 25 | Calama Rural INIA | 02-09-2026 06:00 | 4,6 | 16,7 | 0 | 3,8 | 69 | 8,1 | 782 |
| 24 | Calama Rural INIA | 02-09-2026 05:45 | 5,1 | 16,3 | 0 | 3,9 | 74 | 9,2 | 781,9 |
| 23 | Calama Rural INIA | 02-09-2026 05:30 | 5,6 | 16,1 | 0 | 3,3 | 78 | 7,8 | 781,8 |
| 22 | Calama Rural INIA | 02-09-2026 05:15 | 4,6 | 20,1 | 0 | 1,6 | 70 | 8,1 | 781,8 |
| 21 | Calama Rural INIA | 02-09-2026 05:00 | 5,6 | 18,8 | 0 | 3 | 76 | 8,2 | 781,7 |
| 20 | Calama Rural INIA | 02-09-2026 04:45 | 6,2 | 16,1 | 0 | 2,9 | 73 | 8,3 | 781,6 |
| 19 | Calama Rural INIA | 02-09-2026 04:30 | 6,5 | 15,8 | 0 | 2,8 | 68 | 8,3 | 781,8 |
| 18 | Calama Rural INIA | 02-09-2026 04:15 | 6,8 | 14,1 | 0 | 3,1 | 63 | 8,2 | 781,8 |
| 17 | Calama Rural INIA | 02-09-2026 04:00 | 6,3 | 15,4 | 0 | 3 | 62 | 8,5 | 781,8 |
| 16 | Calama Rural INIA | 02-09-2026 03:45 | 5,9 | 16,5 | 0 | 2,5 | 60 | 8,6 | 781,8 |
| 15 | Calama Rural INIA | 02-09-2026 03:30 | 5,9 | 17,4 | 0 | 3,4 | 74 | 8,7 | 781,8 |
| 14 | Calama Rural INIA | 02-09-2026 03:15 | 6,1 | 16,6 | 0 | 3,4 | 70 | 8,8 | 781,8 |
| 13 | Calama Rural INIA | 02-09-2026 03:00 | 6,4 | 17,6 | 0 | 3,8 | 74 | 9,1 | 781,8 |
| 12 | Calama Rural INIA | 02-09-2026 02:45 | 6,3 | 18,9 | 0 | 3 | 71 | 9,1 | 782 |
| 11 | Calama Rural INIA | 02-09-2026 02:30 | 6,2 | 18,7 | 0 | 2,6 | 66 | 9,8 | 782,1 |
| 10 | Calama Rural INIA | 02-09-2026 02:15 | 6,3 | 19,3 | 0 | 2,9 | 74 | 10 | 782,3 |
| 9 | Calama Rural INIA | 02-09-2026 02:00 | 6,5 | 18,4 | 0 | 3,1 | 73 | 9,9 | 782,6 |
| 8 | Calama Rural INIA | 02-09-2026 01:45 | 7 | 18,2 | 0 | 3 | 75 | 8,9 | 782,5 |
| 7 | Calama Rural INIA | 02-09-2026 01:30 | 7,2 | 18,2 | 0 | 3,2 | 75 | 8,8 | 782,6 |
| 6 | Calama Rural INIA | 02-09-2026 01:15 | 7,1 | 18,9 | 0 | 3,3 | 71 | 9 | 782,6 |
| 5 | Calama Rural INIA | 02-09-2026 01:00 | 8,4 | 17,8 | 0 | 3,1 | 70 | 8,8 | 782,6 |
| 4 | Calama Rural INIA | 02-09-2026 00:45 | 10 | 15,7 | 0 | 1,7 | 57 | 8,6 | 782,7 |
| 3 | Calama Rural INIA | 02-09-2026 00:30 | 10 | 14,8 | 0 | 1,9 | 60 | 8,6 | 782,8 |
| 2 | Calama Rural INIA | 02-09-2026 00:15 | 9,7 | 17,4 | 0 | 1,3 | 63 | 8,7 | 782,7 |
| 1 | Calama Rural INIA | 02-09-2026 00:00 | 10 | 20,1 | 0 | 0,3 | 61 | 8,3 | 782,7 |